• In Germany
  • List of Countries
  • For 7 days
  • Water Temperature
  • Satellite Maps
  • Weather Map
  • Weather Widgets
  • user-avatar
    Login

    Hourly Weather Myshutyne

    Today, 22 July, Sunday

    Time Temperature Precipitation Wind Pressure Humidity
    00:00 +19°C° 0.1 mm 1 mps 735 mmHg 91%
    01:00 +19°C° 0.1 mm 1 mps 735 mmHg 91%
    02:00 +19°C° 0 mm 1 mps 735 mmHg 92%
    03:00 +19°C° 0.2 mm 1 mps 735 mmHg 93%
    04:00 +19°C° 0.2 mm 1 mps 735 mmHg 93%
    05:00 +19°C° 0.2 mm 1 mps 735 mmHg 94%
    06:00 +20°C° 0.2 mm 1 mps 735 mmHg 90%
    07:00 +22°C° 0.2 mm 1 mps 735 mmHg 86%
    08:00 +23°C° 0.2 mm 1 mps 736 mmHg 82%
    09:00 +24°C° 1.4 mm 2 mps 735 mmHg 78%
    10:00 +25°C° 1.4 mm 2 mps 735 mmHg 74%
    11:00 +26°C° 1.4 mm 2 mps 735 mmHg 70%
    12:00 +27°C° 2 mm 2 mps 735 mmHg 70%
    13:00 +27°C° 2 mm 2 mps 735 mmHg 69%
    14:00 +27°C° 2 mm 2 mps 735 mmHg 69%
    15:00 +27°C° 1.4 mm 2 mps 735 mmHg 72%
    16:00 +26°C° 1.4 mm 2 mps 734 mmHg 75%
    17:00 +26°C° 1.4 mm 2 mps 734 mmHg 78%
    18:00 +25°C° 0.6 mm 2 mps 734 mmHg 82%
    19:00 +23°C° 0.6 mm 2 mps 734 mmHg 85%
    20:00 +21°C° 0.6 mm 2 mps 734 mmHg 88%
    21:00 +20°C° 0 mm 2 mps 734 mmHg 90%
    22:00 +20°C° 0 mm 2 mps 734 mmHg 91%
    23:00 +20°C° 0 mm 2 mps 734 mmHg 92%

    Tomorrow, 23 July, Monday

    Time Temperature Precipitation Wind Pressure Humidity
    00:00 +19°C° 0 mm 2 mps 734 mmHg 93%
    01:00 +19°C° 0 mm 2 mps 734 mmHg 94%
    02:00 +19°C° 0 mm 2 mps 734 mmHg 95%
    03:00 +19°C° 0 mm 2 mps 734 mmHg 95%
    04:00 +19°C° 0 mm 2 mps 734 mmHg 96%
    05:00 +19°C° 0 mm 2 mps 734 mmHg 96%
    06:00 +20°C° 0.1 mm 2 mps 734 mmHg 93%
    07:00 +21°C° 0.1 mm 2 mps 735 mmHg 91%
    08:00 +23°C° 0.1 mm 2 mps 735 mmHg 88%
    09:00 +23°C° 0.4 mm 2 mps 735 mmHg 85%
    10:00 +24°C° 0.4 mm 2 mps 735 mmHg 83%
    11:00 +25°C° 0.4 mm 2 mps 735 mmHg 81%
    12:00 +25°C° 1 mm 2 mps 735 mmHg 80%
    13:00 +25°C° 1 mm 2 mps 735 mmHg 78%
    14:00 +26°C° 1 mm 2 mps 735 mmHg 77%
    15:00 +26°C° 0.5 mm 2 mps 735 mmHg 79%
    16:00 +26°C° 0.5 mm 2 mps 735 mmHg 81%
    17:00 +25°C° 0.5 mm 2 mps 735 mmHg 82%
    18:00 +24°C° 0.5 mm 2 mps 735 mmHg 85%
    19:00 +23°C° 0.5 mm 2 mps 735 mmHg 88%
    20:00 +21°C° 0.5 mm 2 mps 735 mmHg 91%
    21:00 +21°C° 0.7 mm 2 mps 736 mmHg 92%
    22:00 +20°C° 0.7 mm 2 mps 736 mmHg 93%
    23:00 +20°C° 0.7 mm 2 mps 736 mmHg 94%

    Day after tomorrow, 24 July, Tuesday

    Time Temperature Precipitation Wind Pressure Humidity
    00:00 +19°C° 0.2 mm 2 mps 736 mmHg 95%
    01:00 +19°C° 0.2 mm 2 mps 736 mmHg 95%
    02:00 +19°C° 0.2 mm 2 mps 736 mmHg 95%
    03:00 +19°C° 0 mm 2 mps 736 mmHg 95%
    04:00 +19°C° 0 mm 2 mps 736 mmHg 95%
    05:00 +19°C° 0 mm 2 mps 736 mmHg 95%
    06:00 +20°C° 0.1 mm 2 mps 736 mmHg 91%
    07:00 +23°C° 0.1 mm 2 mps 737 mmHg 87%
    08:00 +24°C° 0.1 mm 2 mps 737 mmHg 83%
    09:00 +25°C° 0.6 mm 3 mps 737 mmHg 77%
    10:00 +27°C° 0.6 mm 3 mps 737 mmHg 72%
    11:00 +28°C° 0.6 mm 3 mps 737 mmHg 66%
    12:00 +28°C° 0.6 mm 3 mps 738 mmHg 65%
    13:00 +28°C° 0.6 mm 3 mps 738 mmHg 64%
    14:00 +28°C° 0.6 mm 3 mps 738 mmHg 63%
    15:00 +28°C° 0.6 mm 3 mps 738 mmHg 67%
    16:00 +28°C° 0.6 mm 3 mps 738 mmHg 71%
    17:00 +27°C° 0.6 mm 3 mps 738 mmHg 75%
    18:00 +25°C° 0.3 mm 3 mps 738 mmHg 80%
    19:00 +24°C° 0.3 mm 3 mps 738 mmHg 85%
    20:00 +21°C° 0.3 mm 4 mps 738 mmHg 89%
    21:00 +20°C° 0 mm 3 mps 739 mmHg 91%
    22:00 +20°C° 0 mm 3 mps 739 mmHg 93%
    23:00 +19°C° 0 mm 3 mps 739 mmHg 95%

    25 July, Wednesday

    Time Temperature Precipitation Wind Pressure Humidity
    00:00 +19°C° 0 mm 3 mps 739 mmHg 95%
    01:00 +19°C° 0 mm 3 mps 739 mmHg 96%
    02:00 +18°C° 0 mm 2 mps 738 mmHg 97%
    03:00 +18°C° 0 mm 3 mps 739 mmHg 97%
    04:00 +18°C° 0 mm 3 mps 739 mmHg 97%
    05:00 +18°C° 0 mm 3 mps 739 mmHg 97%
    06:00 +19°C° 0 mm 3 mps 739 mmHg 94%
    07:00 +20°C° 0 mm 3 mps 739 mmHg 91%
    08:00 +21°C° 0 mm 3 mps 739 mmHg 88%
    09:00 +22°C° 0.1 mm 3 mps 739 mmHg 84%
    10:00 +25°C° 0.1 mm 3 mps 739 mmHg 80%
    11:00 +26°C° 0.1 mm 2 mps 740 mmHg 75%
    12:00 +26°C° 0.5 mm 3 mps 740 mmHg 74%
    13:00 +27°C° 0.5 mm 3 mps 740 mmHg 72%
    14:00 +28°C° 0.5 mm 3 mps 740 mmHg 70%
    15:00 +28°C° 0.3 mm 3 mps 740 mmHg 72%
    16:00 +28°C° 0.3 mm 3 mps 740 mmHg 74%
    17:00 +28°C° 0.3 mm 3 mps 740 mmHg 76%
    18:00 +26°C° 0.3 mm 3 mps 740 mmHg 80%
    19:00 +24°C° 0.3 mm 3 mps 741 mmHg 85%
    20:00 +22°C° 0.3 mm 3 mps 741 mmHg 90%
    21:00 +21°C° 0 mm 3 mps 741 mmHg 91%
    22:00 +21°C° 0 mm 3 mps 741 mmHg 93%
    23:00 +20°C° 0 mm 3 mps 741 mmHg 94%

    26 July, Thursday

    Time Temperature Precipitation Wind Pressure Humidity
    00:00 +20°C° 0.2 mm 3 mps 741 mmHg 94%
    01:00 +19°C° 0.2 mm 3 mps 741 mmHg 94%
    02:00 +19°C° 0.2 mm 3 mps 741 mmHg 94%
    03:00 +19°C° 0 mm 3 mps 741 mmHg 93%
    04:00 +18°C° 0 mm 3 mps 741 mmHg 92%
    05:00 +18°C° 0 mm 3 mps 741 mmHg 92%
    06:00 +19°C° 0 mm 4 mps 741 mmHg 87%
    07:00 +20°C° 0 mm 4 mps 742 mmHg 83%
    08:00 +22°C° 0 mm 4 mps 742 mmHg 79%
    09:00 +23°C° 0 mm 5 mps 742 mmHg 76%
    10:00 +25°C° 0 mm 5 mps 742 mmHg 73%
    11:00 +26°C° 0 mm 5 mps 742 mmHg 70%
    12:00 +27°C° 0 mm 5 mps 742 mmHg 67%
    13:00 +28°C° 0 mm 5 mps 742 mmHg 65%
    14:00 +29°C° 0 mm 5 mps 742 mmHg 63%
    15:00 +29°C° 0 mm 5 mps 742 mmHg 66%
    16:00 +28°C° 0 mm 5 mps 742 mmHg 69%
    17:00 +28°C° 0 mm 5 mps 742 mmHg 72%
    18:00 +26°C° 0 mm 4 mps 742 mmHg 77%
    19:00 +25°C° 0 mm 4 mps 742 mmHg 81%
    20:00 +22°C° 0 mm 4 mps 742 mmHg 85%
    21:00 +22°C° 0.3 mm 4 mps 743 mmHg 85%
    22:00 +22°C° 0.3 mm 4 mps 743 mmHg 85%
    23:00 +22°C° 0.3 mm 5 mps 743 mmHg 86%

    27 July, Friday

    Time Temperature Precipitation Wind Pressure Humidity
    00:00 +21°C° 0.6 mm 5 mps 743 mmHg 87%
    01:00 +20°C° 0.6 mm 5 mps 743 mmHg 88%
    02:00 +20°C° 0.6 mm 5 mps 743 mmHg 89%
    03:00 +20°C° 0.2 mm 5 mps 743 mmHg 89%
    04:00 +20°C° 0.2 mm 5 mps 743 mmHg 89%
    05:00 +19°C° 0.2 mm 5 mps 744 mmHg 89%
    06:00 +20°C° 0 mm 5 mps 744 mmHg 86%
    07:00 +21°C° 0 mm 5 mps 744 mmHg 82%
    08:00 +23°C° 0 mm 5 mps 744 mmHg 78%
    09:00 +25°C° 0 mm 5 mps 744 mmHg 74%
    10:00 +27°C° 0 mm 5 mps 745 mmHg 70%
    11:00 +28°C° 0 mm 6 mps 745 mmHg 65%
    12:00 +29°C° 0 mm 6 mps 745 mmHg 63%
    13:00 +30°C° 0 mm 6 mps 745 mmHg 61%
    14:00 +30°C° 0 mm 6 mps 745 mmHg 59%
    15:00 +30°C° 0 mm 5 mps 745 mmHg 63%
    16:00 +29°C° 0 mm 5 mps 745 mmHg 67%
    17:00 +29°C° 0 mm 4 mps 745 mmHg 71%
    18:00 +27°C° 0 mm 4 mps 745 mmHg 74%
    19:00 +26°C° 0 mm 4 mps 745 mmHg 77%
    20:00 +23°C° 0 mm 4 mps 745 mmHg 81%
    21:00 +23°C° 0 mm 4 mps 745 mmHg 81%
    22:00 +22°C° 0 mm 4 mps 745 mmHg 82%
    23:00 +22°C° 0 mm 4 mps 745 mmHg 82%
    Show more